QPF
0.00 0.00 0.00 0.02 0.02 0.01 0.00 0.00 0.00 0.00 0.00 0.00 0.00 0.00 0.00 0.00 0.00 0.00 0.00 0.00 0.00 0.00 0.00 0.00 0.00 0.00 0.00 0.00 0.00 0.00 0.00 0.00 0.00 0.00 0.00 0.00 0.00 0.00 0.00 0.00 0.00 0.00 0.00 0.00 0.00 0.00 0.00 0.00 0.00
0.00 0.00 0.00 0.01 0.03 0.05 0.01 0.00 0.00 0.00 0.00 0.00 0.00 0.00 0.00 0.00 0.00 0.00 0.00 0.00 0.00 0.00 0.00 0.00 0.00 0.00 0.00 0.00 0.00 0.00 0.00 0.00 0.00 0.00 0.00 0.00 0.00 0.00 0.00 0.00 0.00 0.00 0.00 0.00 0.00 0.00 0.00 0.00 0.00
0.00 0.00 0.00 0.00 0.06 0.20 0.03 0.00 0.00 0.00 0.00 0.00 0.00 0.00 0.00 0.00 0.00 0.00 0.00 0.00 0.00 0.00 0.00 0.00 0.00 0.00 0.00 0.00 0.00 0.00 0.00 0.00 0.00 0.00 0.00 0.00 0.00 0.00 0.00 0.00 0.00 0.00 0.00 0.00 0.00 0.00 0.00 0.00 0.00
0.00 0.00 0.00 0.00 0.05 0.15 0.05 0.01 0.01 0.00 0.00 0.00 0.00 0.00 0.00 0.00 0.00 0.00 0.00 0.00 0.00 0.00 0.00 0.00 0.00 0.00 0.00 0.00 0.00 0.00 0.00 0.00 0.00 0.00 0.00 0.00 0.00 0.00 0.00 0.00 0.00 0.00 0.00 0.00 0.00 0.00 0.00 0.00 0.00
0.00 0.00 0.00 0.00 0.03 0.07 0.05 0.02 0.02 0.01 0.00 0.00 0.00 0.00 0.00 0.00 0.00 0.00 0.00 0.00 0.00 0.00 0.00 0.00 0.00 0.00 0.00 0.00 0.00 0.00 0.00 0.00 0.00 0.00 0.00 0.00 0.00 0.00 0.00 0.00 0.00 0.00 0.00 0.00 0.00 0.00 0.00 0.00 0.00
0.00 0.00 0.00 0.00 0.00 0.03 0.04 0.02 0.02 0.02 0.01 0.00 0.00 0.00 0.00 0.00 0.00 0.00 0.00 0.00 0.00 0.00 0.00 0.00 0.00 0.00 0.00 0.00 0.00 0.00 0.00 0.00 0.00 0.00 0.00 0.00 0.00 0.00 0.00 0.00 0.00 0.00 0.00 0.00 0.00 0.00 0.00 0.00 0.00
0.00 0.00 0.00 0.00 0.00 0.01 0.01 0.01 0.01 0.01 0.01 0.01 0.00 0.00 0.01 0.00 0.00 0.00 0.00 0.00 0.00 0.00 0.00 0.00 0.00 0.00 0.00 0.00 0.00 0.00 0.00 0.00 0.00 0.00 0.00 0.00 0.00 0.00 0.00 0.00 0.00 0.00 0.00 0.00 0.00 0.00 0.00 0.00 0.00
0.00 0.00 0.00 0.00 0.00 0.00 0.00 0.00 0.00 0.00 0.00 0.00 0.00 0.00 0.01 0.00 0.00 0.00 0.00 0.00 0.00 0.00 0.00 0.00 0.00 0.00 0.00 0.00 0.00 0.00 0.00 0.00 0.00 0.00 0.00 0.00 0.00 0.00 0.00 0.00 0.00 0.00 0.00 0.00 0.00 0.00 0.00 0.00 0.00
0.00 0.00 0.00 0.00 0.00 0.00 0.00 0.00 0.00 0.00 0.00 0.00 0.00 0.00 0.01 0.00 0.00 0.00 0.00 0.00 0.00 0.00 0.00 0.00 0.00 0.00 0.00 0.00 0.00 0.00 0.00 0.00 0.00 0.00 0.00 0.00 0.00 0.00 0.00 0.00 0.01 0.00 0.00 0.00 0.00 0.01 0.00 0.00 0.00
0.00 0.00 0.00 0.00 0.00 0.00 0.00 0.00 0.00 0.00 0.00 0.00 0.00 0.01 0.02 0.01 0.00 0.00 0.00 0.00 0.00 0.00 0.00 0.00 0.00 0.00 0.00 0.00 0.00 0.00 0.00 0.00 0.00 0.00 0.00 0.00 0.00 0.00 0.00 0.00 0.01 0.02 0.01 0.01 0.01 0.01 0.00 0.00 0.00
0.00 0.00 0.00 0.00 0.00 0.00 0.00 0.00 0.00 0.00 0.00 0.00 0.00 0.02 0.05 0.03 0.01 0.00 0.00 0.00 0.00 0.00 0.00 0.00 0.00 0.00 0.00 0.00 0.00 0.00 0.00 0.00 0.00 0.00 0.00 0.00 0.01 0.00 0.00 0.00 0.00 0.01 0.01 0.00 0.00 0.00 0.00 0.00 0.00
0.00 0.00 0.00 0.00 0.00 0.00 0.00 0.00 0.00 0.00 0.00 0.00 0.00 0.01 0.02 0.02 0.01 0.00 0.00 0.00 0.00 0.00 0.00 0.00 0.00 0.00 0.00 0.00 0.00 0.00 0.00 0.00 0.00 0.00 0.00 0.00 0.00 0.00 0.00 0.00 0.00 0.00 0.00 0.00 0.00 0.00 0.00 0.00 0.00
0.00 0.00 0.00 0.00 0.00 0.00 0.00 0.00 0.00 0.00 0.00 0.00 0.00 0.00 0.00 0.00 0.01 0.01 0.01 0.00 0.00 0.00 0.00 0.00 0.00 0.00 0.00 0.00 0.00 0.00 0.00 0.00 0.00 0.00 0.00 0.00 0.00 0.00 0.00 0.00 0.00 0.00 0.00 0.00 0.01 0.00 0.00 0.01 0.01
0.00 0.00 0.00 0.00 0.00 0.00 0.00 0.00 0.00 0.00 0.00 0.00 0.00 0.00 0.00 0.00 0.00 0.01 0.01 0.01 0.01 0.00 0.00 0.00 0.00 0.00 0.00 0.00 0.01 0.01 0.01 0.01 0.01 0.01 0.01 0.01 0.01 0.00 0.00 0.01 0.01 0.01 0.01 0.02 0.01 0.01 0.01 0.02 0.01
0.00 0.00 0.00 0.00 0.00 0.00 0.00 0.00 0.00 0.00 0.00 0.00 0.00 0.00 0.00 0.00 0.00 0.00 0.01 0.01 0.01 0.01 0.01 0.01 0.03 0.03 0.03 0.02 0.02 0.03 0.02 0.03 0.04 0.04 0.04 0.05 0.05 0.05 0.05 0.06 0.06 0.05 0.06 0.05 0.05 0.05 0.05 0.04 0.05
0.00 0.00 0.00 0.00 0.00 0.00 0.00 0.00 0.00 0.00 0.00 0.00 0.00 0.00 0.00 0.00 0.00 0.00 0.01 0.02 0.02 0.02 0.02 0.04 0.07 0.07 0.06 0.07 0.09 0.09 0.09 0.10 0.11 0.13 0.13 0.14 0.16 0.17 0.19 0.18 0.16 0.15 0.13 0.12 0.11 0.10 0.09 0.10 0.11
0.00 0.00 0.00 0.00 0.00 0.00 0.00 0.00 0.00 0.00 0.00 0.00 0.00 0.00 0.00 0.00 0.00 0.00 0.01 0.01 0.02 0.02 0.04 0.08 0.12 0.15 0.16 0.17 0.17 0.15 0.16 0.15 0.14 0.16 0.19 0.25 0.31 0.33 0.37 0.34 0.31 0.31 0.26 0.17 0.12 0.12 0.13 0.13 0.14
0.00 0.00 0.00 0.00 0.00 0.00 0.00 0.00 0.00 0.00 0.00 0.00 0.00 0.00 0.00 0.00 0.00 0.00 0.00 0.00 0.01 0.02 0.04 0.10 0.14 0.15 0.16 0.14 0.13 0.13 0.13 0.12 0.13 0.14 0.16 0.19 0.23 0.27 0.35 0.34 0.32 0.36 0.30 0.18 0.15 0.14 0.16 0.16 0.17
0.00 0.00 0.00 0.00 0.00 0.00 0.00 0.00 0.00 0.00 0.00 0.00 0.00 0.00 0.00 0.00 0.00 0.00 0.00 0.00 0.00 0.01 0.02 0.06 0.09 0.09 0.08 0.09 0.07 0.06 0.06 0.05 0.05 0.06 0.07 0.08 0.10 0.17 0.27 0.28 0.29 0.32 0.27 0.21 0.19 0.20 0.20 0.16 0.18
0.00 0.00 0.00 0.00 0.00 0.00 0.00 0.00 0.00 0.00 0.00 0.00 0.00 0.00 0.00 0.00 0.00 0.00 0.00 0.00 0.00 0.00 0.00 0.01 0.02 0.03 0.03 0.03 0.03 0.03 0.02 0.02 0.01 0.01 0.02 0.02 0.04 0.08 0.14 0.15 0.17 0.20 0.23 0.18 0.17 0.20 0.19 0.13 0.16
0.00 0.00 0.00 0.00 0.00 0.00 0.00 0.00 0.00 0.00 0.00 0.00 0.01 0.01 0.01 0.01 0.01 0.00 0.00 0.00 0.00 0.00 0.00 0.00 0.00 0.00 0.00 0.01 0.01 0.01 0.01 0.00 0.00 0.00 0.00 0.01 0.01 0.03 0.06 0.08 0.11 0.15 0.20 0.17 0.14 0.17 0.18 0.12 0.11
0.00 0.00 0.00 0.00 0.00 0.00 0.00 0.00 0.00 0.00 0.00 0.01 0.02 0.02 0.02 0.01 0.01 0.00 0.00 0.00 0.00 0.00 0.00 0.00 0.00 0.00 0.00 0.00 0.00 0.00 0.00 0.00 0.00 0.00 0.00 0.00 0.01 0.02 0.03 0.05 0.07 0.09 0.12 0.13 0.12 0.13 0.13 0.13 0.09
0.00 0.00 0.00 0.00 0.00 0.00 0.00 0.00 0.00 0.02 0.02 0.03 0.03 0.04 0.03 0.01 0.00 0.00 0.00 0.00 0.00 0.00 0.00 0.00 0.00 0.00 0.00 0.00 0.00 0.00 0.00 0.00 0.00 0.00 0.00 0.00 0.01 0.01 0.02 0.04 0.06 0.08 0.10 0.11 0.11 0.11 0.12 0.11 0.10
0.00 0.00 0.00 0.00 0.00 0.00 0.01 0.01 0.01 0.02 0.03 0.02 0.02 0.02 0.01 0.00 0.00 0.00 0.00 0.00 0.00 0.00 0.00 0.00 0.00 0.00 0.00 0.00 0.00 0.00 0.00 0.00 0.00 0.00 0.00 0.01 0.01 0.01 0.02 0.04 0.06 0.07 0.09 0.09 0.08 0.08 0.08 0.07 0.07
0.00 0.00 0.00 0.00 0.00 0.00 0.00 0.01 0.01 0.01 0.02 0.03 0.04 0.02 0.01 0.00 0.00 0.00 0.00 0.00 0.00 0.00 0.00 0.00 0.00 0.00 0.00 0.00 0.00 0.00 0.00 0.00 0.01 0.01 0.01 0.01 0.01 0.02 0.04 0.06 0.08 0.11 0.11 0.11 0.10 0.08 0.07 0.08 0.10
0.00 0.00 0.00 0.00 0.00 0.00 0.00 0.01 0.01 0.01 0.02 0.02 0.02 0.01 0.00 0.00 0.00 0.00 0.00 0.00 0.00 0.00 0.00 0.00 0.00 0.00 0.00 0.00 0.00 0.00 0.00 0.00 0.01 0.01 0.01 0.02 0.02 0.03 0.05 0.08 0.11 0.13 0.14 0.12 0.10 0.08 0.08 0.10 0.13
0.00 0.00 0.00 0.00 0.00 0.00 0.00 0.00 0.01 0.01 0.01 0.01 0.01 0.00 0.00 0.00 0.00 0.00 0.00 0.00 0.00 0.00 0.00 0.00 0.00 0.00 0.00 0.00 0.00 0.00 0.00 0.00 0.00 0.00 0.01 0.01 0.02 0.03 0.05 0.07 0.09 0.12 0.14 0.13 0.12 0.09 0.11 0.14 0.18
0.00 0.00 0.00 0.00 0.00 0.00 0.00 0.00 0.00 0.01 0.01 0.01 0.00 0.00 0.00 0.00 0.00 0.00 0.00 0.00 0.00 0.00 0.00 0.00 0.00 0.00 0.00 0.00 0.00 0.00 0.00 0.00 0.00 0.00 0.00 0.01 0.02 0.03 0.05 0.07 0.10 0.15 0.19 0.21 0.21 0.21 0.25 0.32 0.32
0.00 0.00 0.00 0.00 0.01 0.00 0.00 0.00 0.00 0.01 0.01 0.00 0.00 0.00 0.00 0.00 0.00 0.00 0.00 0.00 0.00 0.00 0.00 0.00 0.00 0.00 0.00 0.00 0.00 0.00 0.00 0.00 0.00 0.00 0.00 0.01 0.01 0.02 0.05 0.09 0.13 0.17 0.22 0.29 0.34 0.37 0.41 0.42 0.37
0.01 0.01 0.01 0.00 0.00 0.00 0.00 0.00 0.00 0.00 0.00 0.00 0.00 0.00 0.00 0.00 0.00 0.00 0.00 0.00 0.00 0.00 0.00 0.00 0.00 0.00 0.00 0.00 0.00 0.00 0.00 0.00 0.00 0.00 0.00 0.01 0.02 0.03 0.07 0.11 0.15 0.21 0.27 0.33 0.42 0.51 0.55 0.51 0.45
MSLP
1009.90 1010.95 1012.12 1013.20 1013.97 1014.30 1014.13 1013.51 1012.58 1011.56 1010.68 1010.10 1009.92 1010.11 1010.58 1011.17 1011.70 1012.05 1012.15 1012.03 1011.78 1011.53 1011.39 1011.47 1011.78 1012.27 1012.86 1013.43 1013.89 1014.19 1014.32 1014.34 1014.30 1014.30 1014.37 1014.54 1014.78 1015.05 1015.29 1015.45 1015.52 1015.51 1015.45 1015.39 1015.36 1015.38 1015.46 1015.57 1015.68
1010.46 1011.72 1013.00 1014.06 1014.70 1014.82 1014.38 1013.48 1012.31 1011.11 1010.10 1009.46 1009.25 1009.44 1009.92 1010.52 1011.06 1011.43 1011.56 1011.49 1011.31 1011.14 1011.09 1011.25 1011.62 1012.15 1012.75 1013.32 1013.78 1014.08 1014.23 1014.28 1014.29 1014.33 1014.45 1014.64 1014.88 1015.12 1015.32 1015.44 1015.48 1015.45 1015.39 1015.33 1015.32 1015.35 1015.43 1015.53 1015.62
1011.15 1012.55 1013.86 1014.85 1015.33 1015.21 1014.52 1013.39 1012.03 1010.71 1009.64 1008.98 1008.77 1008.99 1009.48 1010.08 1010.62 1010.99 1011.13 1011.10 1010.97 1010.87 1010.89 1011.10 1011.51 1012.05 1012.64 1013.19 1013.63 1013.93 1014.09 1014.17 1014.22 1014.31 1014.46 1014.66 1014.88 1015.10 1015.26 1015.34 1015.35 1015.31 1015.25 1015.22 1015.24 1015.30 1015.39 1015.48 1015.55
1011.87 1013.33 1014.59 1015.45 1015.73 1015.39 1014.49 1013.18 1011.72 1010.34 1009.28 1008.65 1008.50 1008.75 1009.26 1009.86 1010.39 1010.74 1010.89 1010.87 1010.79 1010.74 1010.82 1011.07 1011.49 1012.02 1012.58 1013.09 1013.49 1013.77 1013.93 1014.03 1014.12 1014.24 1014.40 1014.61 1014.82 1015.00 1015.12 1015.17 1015.15 1015.11 1015.08 1015.09 1015.14 1015.24 1015.35 1015.44 1015.50
1012.51 1013.92 1015.07 1015.73 1015.81 1015.27 1014.21 1012.81 1011.32 1009.98 1008.99 1008.46 1008.38 1008.68 1009.21 1009.80 1010.31 1010.64 1010.79 1010.80 1010.76 1010.76 1010.89 1011.17 1011.59 1012.09 1012.60 1013.05 1013.39 1013.63 1013.78 1013.88 1013.99 1014.13 1014.32 1014.52 1014.71 1014.86 1014.95 1014.96 1014.94 1014.90 1014.89 1014.94 1015.03 1015.17 1015.31 1015.42 1015.47
1012.99 1014.25 1015.19 1015.64 1015.51 1014.81 1013.66 1012.25 1010.82 1009.60 1008.75 1008.34 1008.37 1008.72 1009.27 1009.84 1010.32 1010.63 1010.78 1010.82 1010.82 1010.89 1011.06 1011.37 1011.79 1012.25 1012.70 1013.08 1013.35 1013.53 1013.65 1013.75 1013.87 1014.03 1014.22 1014.43 1014.60 1014.72 1014.77 1014.76 1014.72 1014.68 1014.69 1014.77 1014.90 1015.08 1015.24 1015.37 1015.42
1013.23 1014.27 1014.95 1015.16 1014.84 1014.02 1012.85 1011.52 1010.23 1009.18 1008.51 1008.26 1008.39 1008.80 1009.34 1009.89 1010.33 1010.62 1010.77 1010.85 1010.92 1011.05 1011.29 1011.63 1012.04 1012.47 1012.85 1013.15 1013.35 1013.47 1013.55 1013.63 1013.75 1013.92 1014.13 1014.33 1014.50 1014.60 1014.62 1014.58 1014.51 1014.47 1014.48 1014.57 1014.73 1014.93 1015.12 1015.25 1015.31
1013.23 1013.99 1014.40 1014.38 1013.89 1013.02 1011.88 1010.67 1009.57 1008.74 1008.27 1008.18 1008.40 1008.84 1009.37 1009.87 1010.27 1010.54 1010.71 1010.82 1010.96 1011.17 1011.48 1011.86 1012.28 1012.67 1012.99 1013.21 1013.34 1013.40 1013.44 1013.51 1013.63 1013.82 1014.03 1014.24 1014.40 1014.48 1014.48 1014.40 1014.31 1014.24 1014.25 1014.33 1014.49 1014.70 1014.90 1015.04 1015.11
1013.04 1013.52 1013.66 1013.42 1012.81 1011.92 1010.87 1009.82 1008.93 1008.32 1008.05 1008.09 1008.39 1008.83 1009.33 1009.77 1010.12 1010.36 1010.54 1010.70 1010.91 1011.20 1011.57 1011.99 1012.42 1012.79 1013.06 1013.22 1013.28 1013.29 1013.30 1013.36 1013.48 1013.68 1013.91 1014.12 1014.28 1014.35 1014.32 1014.22 1014.10 1014.00 1013.97 1014.03 1014.18 1014.37 1014.57 1014.71 1014.78
1012.75 1012.96 1012.87 1012.46 1011.77 1010.89 1009.96 1009.09 1008.40 1007.99 1007.87 1008.02 1008.35 1008.78 1009.22 1009.59 1009.88 1010.09 1010.27 1010.47 1010.74 1011.09 1011.52 1011.98 1012.41 1012.76 1013.00 1013.12 1013.14 1013.11 1013.10 1013.14 1013.28 1013.48 1013.72 1013.94 1014.11 1014.17 1014.13 1014.00 1013.85 1013.72 1013.65 1013.68 1013.79 1013.96 1014.14 1014.28 1014.35
1012.47 1012.46 1012.18 1011.65 1010.92 1010.08 1009.26 1008.55 1008.05 1007.80 1007.79 1008.00 1008.33 1008.72 1009.08 1009.38 1009.60 1009.77 1009.94 1010.16 1010.47 1010.86 1011.32 1011.81 1012.24 1012.58 1012.80 1012.88 1012.88 1012.84 1012.81 1012.86 1012.99 1013.20 1013.44 1013.67 1013.83 1013.89 1013.85 1013.71 1013.54 1013.38 1013.28 1013.27 1013.35 1013.49 1013.65 1013.78 1013.85
1012.30 1012.13 1011.72 1011.10 1010.37 1009.59 1008.87 1008.30 1007.92 1007.78 1007.84 1008.06 1008.36 1008.68 1008.96 1009.18 1009.34 1009.46 1009.62 1009.83 1010.15 1010.55 1011.02 1011.51 1011.94 1012.27 1012.47 1012.55 1012.53 1012.49 1012.46 1012.50 1012.63 1012.83 1013.06 1013.29 1013.45 1013.51 1013.47 1013.33 1013.16 1012.99 1012.87 1012.83 1012.88 1012.99 1013.13 1013.26 1013.33
1012.31 1012.03 1011.54 1010.89 1010.16 1009.44 1008.81 1008.33 1008.04 1007.95 1008.03 1008.22 1008.47 1008.72 1008.93 1009.07 1009.16 1009.25 1009.37 1009.56 1009.85 1010.24 1010.68 1011.14 1011.55 1011.87 1012.06 1012.15 1012.14 1012.10 1012.08 1012.11 1012.22 1012.39 1012.60 1012.80 1012.94 1013.00 1012.97 1012.85 1012.69 1012.54 1012.42 1012.38 1012.41 1012.51 1012.63 1012.75 1012.82
1012.52 1012.17 1011.64 1010.99 1010.29 1009.62 1009.05 1008.63 1008.37 1008.29 1008.35 1008.50 1008.68 1008.86 1009.00 1009.09 1009.14 1009.19 1009.27 1009.42 1009.66 1009.99 1010.38 1010.79 1011.16 1011.46 1011.66 1011.75 1011.77 1011.74 1011.72 1011.73 1011.80 1011.92 1012.08 1012.23 1012.34 1012.40 1012.37 1012.28 1012.16 1012.04 1011.95 1011.92 1011.96 1012.05 1012.18 1012.29 1012.37
1012.86 1012.49 1011.95 1011.32 1010.67 1010.05 1009.52 1009.12 1008.87 1008.76 1008.77 1008.85 1008.98 1009.10 1009.20 1009.26 1009.28 1009.30 1009.34 1009.44 1009.61 1009.86 1010.17 1010.51 1010.84 1011.11 1011.31 1011.43 1011.47 1011.46 1011.43 1011.41 1011.42 1011.47 1011.55 1011.63 1011.69 1011.72 1011.70 1011.64 1011.57 1011.49 1011.45 1011.46 1011.52 1011.62 1011.75 1011.87 1011.96
1013.25 1012.88 1012.38 1011.80 1011.21 1010.64 1010.15 1009.75 1009.47 1009.31 1009.25 1009.27 1009.34 1009.43 1009.50 1009.55 1009.57 1009.57 1009.58 1009.62 1009.72 1009.87 1010.09 1010.35 1010.62 1010.87 1011.08 1011.21 1011.28 1011.28 1011.24 1011.18 1011.12 1011.08 1011.05 1011.04 1011.03 1011.02 1010.99 1010.96 1010.93 1010.92 1010.93 1010.98 1011.07 1011.19 1011.34 1011.47 1011.58
1013.60 1013.26 1012.82 1012.33 1011.82 1011.32 1010.87 1010.47 1010.15 1009.92 1009.79 1009.74 1009.75 1009.80 1009.86 1009.92 1009.95 1009.95 1009.94 1009.93 1009.95 1010.02 1010.14 1010.31 1010.52 1010.75 1010.95 1011.10 1011.19 1011.21 1011.15 1011.05 1010.91 1010.76 1010.62 1010.50 1010.40 1010.34 1010.29 1010.27 1010.28 1010.31 1010.37 1010.46 1010.58 1010.73 1010.89 1011.05 1011.17
1013.82 1013.56 1013.23 1012.86 1012.47 1012.06 1011.65 1011.25 1010.89 1010.58 1010.35 1010.21 1010.16 1010.18 1010.24 1010.30 1010.36 1010.37 1010.35 1010.31 1010.26 1010.24 1010.27 1010.36 1010.51 1010.70 1010.90 1011.07 1011.18 1011.21 1011.14 1010.99 1010.78 1010.52 1010.27 1010.03 1009.84 1009.71 1009.63 1009.60 1009.63 1009.69 1009.78 1009.90 1010.04 1010.21 1010.39 1010.56 1010.71
1013.90 1013.75 1013.58 1013.39 1013.15 1012.86 1012.51 1012.11 1011.69 1011.29 1010.95 1010.70 1010.56 1010.52 1010.56 1010.63 1010.71 1010.74 1010.72 1010.66 1010.56 1010.47 1010.43 1010.44 1010.54 1010.70 1010.89 1011.07 1011.20 1011.24 1011.17 1010.98 1010.70 1010.36 1010.00 1009.66 1009.38 1009.17 1009.03 1008.98 1008.99 1009.05 1009.15 1009.28 1009.43 1009.60 1009.79 1009.99 1010.17
1013.84 1013.87 1013.91 1013.93 1013.89 1013.74 1013.46 1013.06 1012.57 1012.05 1011.56 1011.17 1010.91 1010.79 1010.78 1010.84 1010.93 1010.98 1010.98 1010.91 1010.79 1010.66 1010.55 1010.51 1010.56 1010.69 1010.87 1011.06 1011.20 1011.25 1011.18 1010.97 1010.65 1010.24 1009.81 1009.38 1009.01 1008.72 1008.52 1008.42 1008.39 1008.43 1008.51 1008.62 1008.75 1008.92 1009.11 1009.32 1009.54
1013.72 1013.97 1014.27 1014.54 1014.71 1014.71 1014.50 1014.09 1013.51 1012.85 1012.19 1011.62 1011.20 1010.95 1010.86 1010.89 1010.97 1011.04 1011.06 1011.01 1010.89 1010.74 1010.60 1010.52 1010.53 1010.63 1010.80 1010.99 1011.14 1011.21 1011.15 1010.95 1010.61 1010.17 1009.67 1009.18 1008.74 1008.37 1008.10 1007.93 1007.84 1007.82 1007.85 1007.92 1008.02 1008.17 1008.35 1008.57 1008.82
1013.64 1014.14 1014.71 1015.24 1015.63 1015.77 1015.62 1015.17 1014.49 1013.65 1012.79 1012.00 1011.39 1010.98 1010.79 1010.76 1010.82 1010.91 1010.96 1010.94 1010.85 1010.70 1010.56 1010.46 1010.45 1010.52 1010.68 1010.86 1011.03 1011.11 1011.08 1010.89 1010.56 1010.12 1009.60 1009.06 1008.56 1008.12 1007.77 1007.51 1007.34 1007.24 1007.19 1007.20 1007.26 1007.38 1007.55 1007.78 1008.06
1013.67 1014.42 1015.25 1016.02 1016.59 1016.84 1016.73 1016.23 1015.41 1014.39 1013.31 1012.30 1011.48 1010.90 1010.57 1010.47 1010.51 1010.61 1010.70 1010.73 1010.68 1010.57 1010.44 1010.34 1010.32 1010.38 1010.52 1010.70 1010.87 1010.98 1010.98 1010.83 1010.53 1010.10 1009.58 1009.01 1008.46 1007.95 1007.51 1007.16 1006.88 1006.69 1006.57 1006.51 1006.52 1006.60 1006.76 1007.00 1007.30
1013.86 1014.83 1015.87 1016.82 1017.52 1017.84 1017.72 1017.15 1016.20 1015.00 1013.70 1012.48 1011.45 1010.70 1010.25 1010.07 1010.09 1010.20 1010.34 1010.42 1010.43 1010.37 1010.28 1010.19 1010.16 1010.21 1010.34 1010.52 1010.71 1010.84 1010.88 1010.77 1010.51 1010.11 1009.60 1009.02 1008.43 1007.85 1007.32 1006.86 1006.49 1006.19 1005.98 1005.85 1005.82 1005.87 1006.02 1006.27 1006.59
1014.21 1015.33 1016.50 1017.54 1018.31 1018.64 1018.49 1017.83 1016.76 1015.40 1013.93 1012.53 1011.34 1010.45 1009.89 1009.65 1009.64 1009.78 1009.95 1010.09 1010.16 1010.15 1010.10 1010.04 1010.01 1010.06 1010.18 1010.36 1010.56 1010.72 1010.79 1010.74 1010.53 1010.17 1009.67 1009.09 1008.45 1007.80 1007.18 1006.62 1006.14 1005.75 1005.46 1005.28 1005.20 1005.24 1005.39 1005.64 1005.97
1014.67 1015.84 1017.04 1018.09 1018.84 1019.14 1018.92 1018.19 1017.02 1015.56 1013.98 1012.47 1011.18 1010.20 1009.58 1009.29 1009.27 1009.42 1009.62 1009.81 1009.93 1009.96 1009.94 1009.89 1009.87 1009.91 1010.03 1010.21 1010.41 1010.60 1010.72 1010.72 1010.56 1010.24 1009.77 1009.18 1008.51 1007.80 1007.09 1006.44 1005.86 1005.39 1005.04 1004.81 1004.72 1004.75 1004.91 1005.17 1005.51
1015.15 1016.26 1017.40 1018.38 1019.04 1019.27 1018.98 1018.20 1016.99 1015.49 1013.89 1012.36 1011.05 1010.05 1009.41 1009.10 1009.07 1009.22 1009.43 1009.64 1009.77 1009.83 1009.81 1009.77 1009.74 1009.76 1009.87 1010.04 1010.26 1010.48 1010.64 1010.69 1010.59 1010.32 1009.88 1009.29 1008.60 1007.84 1007.06 1006.33 1005.68 1005.14 1004.74 1004.49 1004.40 1004.45 1004.62 1004.90 1005.24
1015.56 1016.54 1017.53 1018.37 1018.91 1019.04 1018.70 1017.91 1016.73 1015.28 1013.75 1012.29 1011.03 1010.08 1009.46 1009.16 1009.12 1009.25 1009.44 1009.62 1009.73 1009.76 1009.72 1009.64 1009.58 1009.58 1009.66 1009.82 1010.05 1010.29 1010.50 1010.61 1010.57 1010.36 1009.97 1009.40 1008.71 1007.92 1007.11 1006.32 1005.62 1005.04 1004.62 1004.37 1004.29 1004.36 1004.56 1004.86 1005.20
1015.82 1016.63 1017.42 1018.08 1018.48 1018.53 1018.18 1017.42 1016.34 1015.04 1013.67 1012.36 1011.24 1010.38 1009.82 1009.53 1009.47 1009.55 1009.67 1009.78 1009.81 1009.76 1009.65 1009.50 1009.38 1009.33 1009.37 1009.51 1009.73 1010.00 1010.25 1010.43 1010.46 1010.33 1010.00 1009.49 1008.83 1008.05 1007.23 1006.43 1005.71 1005.13 1004.71 1004.47 1004.42 1004.52 1004.75 1005.06 1005.41
1015.93 1016.54 1017.14 1017.63 1017.91 1017.90 1017.57 1016.92 1016.00 1014.90 1013.75 1012.65 1011.70 1010.97 1010.48 1010.21 1010.11 1010.10 1010.12 1010.10 1010.01 1009.83 1009.60 1009.35 1009.13 1009.00 1008.98 1009.08 1009.29 1009.57 1009.87 1010.11 1010.24 1010.20 1009.97 1009.55 1008.96 1008.25 1007.46 1006.69 1005.99 1005.42 1005.02 1004.81 1004.79 1004.92 1005.18 1005.50 1005.84
Thickness
5852 5852 5849 5837 5818 5801 5801 5824 5843 5846 5851 5860 5863 5856 5843 5836 5826 5815 5839 5847 5842 5836 5832 5829 5827 5824 5821 5818 5814 5811 5808 5805 5803 5802 5800 5799 5797 5795 5792 5790 5788 5785 5783 5781 5779 5777 5775 5772 5769
5853 5853 5843 5828 5804 5780 5795 5827 5839 5850 5860 5867 5864 5858 5848 5843 5845 5840 5842 5845 5845 5839 5835 5832 5828 5826 5823 5819 5815 5812 5808 5805 5803 5801 5800 5798 5797 5795 5792 5790 5788 5786 5784 5782 5779 5777 5775 5773 5771
5853 5849 5830 5814 5796 5784 5796 5827 5843 5859 5871 5869 5858 5857 5850 5847 5850 5845 5847 5848 5843 5839 5836 5833 5829 5826 5823 5820 5817 5813 5810 5806 5804 5802 5800 5798 5796 5794 5792 5790 5788 5787 5785 5783 5780 5778 5776 5773 5771
5848 5835 5822 5801 5794 5809 5817 5833 5848 5854 5863 5867 5858 5846 5853 5866 5861 5853 5850 5848 5842 5838 5836 5833 5830 5827 5824 5821 5817 5813 5810 5807 5805 5803 5801 5799 5797 5794 5792 5790 5789 5787 5785 5783 5781 5779 5776 5774 5772
5843 5822 5801 5785 5797 5822 5837 5847 5853 5851 5854 5857 5855 5840 5844 5864 5866 5857 5850 5847 5843 5838 5835 5833 5830 5827 5824 5820 5816 5813 5810 5808 5805 5803 5801 5799 5797 5795 5793 5791 5789 5787 5785 5783 5781 5779 5777 5775 5773
5828 5814 5789 5780 5801 5827 5843 5856 5858 5855 5855 5855 5851 5838 5841 5858 5858 5852 5849 5846 5845 5840 5836 5833 5829 5826 5823 5820 5817 5814 5811 5808 5806 5804 5802 5800 5798 5796 5794 5792 5789 5787 5786 5784 5781 5779 5777 5776 5774
5820 5805 5792 5797 5807 5825 5844 5859 5856 5855 5855 5858 5859 5837 5838 5848 5857 5855 5849 5845 5843 5840 5835 5832 5828 5825 5822 5819 5816 5814 5811 5809 5806 5804 5802 5800 5798 5796 5794 5792 5790 5787 5785 5783 5782 5780 5778 5776 5775
5830 5806 5796 5798 5811 5826 5854 5864 5867 5864 5860 5872 5867 5842 5835 5850 5859 5856 5849 5843 5840 5837 5834 5831 5827 5824 5821 5818 5815 5812 5810 5808 5805 5803 5801 5800 5798 5796 5794 5792 5789 5787 5785 5783 5782 5780 5778 5776 5775
5837 5796 5785 5801 5812 5826 5852 5856 5864 5876 5870 5870 5870 5864 5864 5865 5861 5853 5846 5839 5835 5834 5831 5829 5826 5823 5820 5816 5813 5811 5808 5806 5804 5802 5800 5798 5797 5795 5793 5791 5789 5787 5785 5783 5781 5780 5778 5776 5774
5817 5789 5800 5821 5831 5835 5848 5851 5855 5856 5852 5852 5856 5863 5868 5864 5857 5850 5844 5839 5835 5833 5830 5828 5825 5822 5818 5814 5812 5809 5806 5804 5802 5800 5799 5797 5795 5794 5791 5789 5788 5786 5784 5783 5781 5779 5776 5774 5773
5820 5808 5819 5831 5843 5847 5847 5851 5857 5845 5834 5843 5846 5850 5856 5856 5853 5848 5845 5844 5840 5837 5833 5829 5824 5820 5816 5813 5810 5806 5804 5802 5800 5799 5797 5795 5793 5791 5789 5787 5785 5784 5783 5781 5780 5777 5775 5774 5773
5820 5824 5831 5837 5847 5846 5847 5852 5851 5847 5844 5856 5857 5856 5852 5848 5847 5846 5842 5840 5838 5834 5831 5829 5824 5818 5815 5812 5809 5804 5801 5799 5797 5796 5794 5791 5789 5788 5787 5785 5783 5782 5780 5779 5777 5775 5774 5772 5771
5817 5823 5836 5844 5846 5848 5849 5846 5848 5848 5854 5854 5850 5847 5844 5843 5843 5844 5843 5838 5834 5829 5828 5827 5823 5817 5813 5808 5806 5802 5799 5797 5795 5793 5791 5789 5786 5784 5784 5783 5782 5781 5779 5777 5775 5773 5771 5769 5768
5819 5827 5833 5840 5841 5843 5838 5838 5840 5844 5850 5843 5837 5833 5834 5835 5835 5833 5832 5828 5825 5823 5822 5822 5818 5814 5809 5805 5802 5800 5798 5795 5792 5790 5787 5785 5783 5782 5780 5779 5779 5778 5777 5775 5773 5771 5769 5767 5766
5819 5815 5818 5828 5833 5836 5831 5818 5829 5843 5844 5833 5828 5825 5824 5826 5826 5823 5822 5820 5817 5815 5814 5811 5808 5805 5801 5798 5796 5794 5792 5790 5789 5787 5784 5781 5779 5778 5776 5774 5772 5772 5772 5771 5769 5768 5765 5764 5762
5802 5792 5785 5810 5824 5830 5813 5793 5821 5838 5835 5823 5821 5819 5816 5816 5817 5817 5816 5813 5811 5807 5804 5800 5798 5793 5790 5788 5786 5785 5783 5782 5781 5779 5778 5776 5774 5772 5771 5768 5765 5765 5763 5763 5762 5761 5759 5758 5757
5769 5762 5771 5794 5818 5822 5807 5794 5815 5828 5826 5817 5815 5813 5811 5808 5809 5810 5810 5806 5802 5799 5794 5789 5786 5782 5780 5778 5776 5775 5774 5773 5773 5772 5771 5769 5768 5768 5766 5765 5762 5759 5756 5755 5757 5757 5754 5751 5750
5750 5758 5767 5777 5801 5806 5794 5794 5809 5818 5818 5810 5807 5805 5803 5801 5801 5805 5804 5801 5796 5790 5786 5780 5776 5773 5771 5770 5768 5767 5766 5766 5766 5765 5765 5764 5763 5763 5762 5761 5760 5756 5752 5751 5750 5750 5749 5746 5744
5769 5766 5763 5775 5794 5788 5779 5783 5794 5805 5805 5798 5793 5791 5791 5793 5797 5800 5799 5796 5790 5784 5778 5773 5768 5764 5762 5759 5756 5755 5754 5756 5756 5757 5758 5757 5756 5756 5756 5756 5756 5753 5750 5749 5748 5745 5741 5739 5738
5770 5759 5758 5768 5785 5781 5772 5773 5785 5792 5793 5793 5786 5782 5783 5783 5786 5789 5789 5786 5781 5775 5771 5766 5762 5759 5755 5751 5749 5747 5746 5747 5748 5749 5749 5749 5749 5749 5749 5749 5749 5749 5746 5745 5743 5740 5736 5735 5733
5762 5755 5754 5756 5766 5770 5763 5751 5761 5774 5783 5786 5782 5779 5778 5778 5777 5778 5778 5776 5772 5768 5764 5761 5757 5753 5750 5746 5741 5738 5736 5736 5736 5738 5739 5742 5742 5742 5742 5742 5742 5742 5740 5739 5739 5737 5732 5728 5728
5747 5764 5764 5759 5744 5732 5743 5716 5744 5757 5761 5767 5769 5769 5770 5773 5772 5771 5770 5768 5765 5763 5761 5756 5751 5746 5742 5739 5734 5728 5724 5722 5725 5728 5731 5734 5735 5735 5736 5736 5736 5736 5735 5734 5733 5733 5729 5725 5722
5758 5768 5761 5754 5740 5726 5730 5717 5726 5746 5744 5749 5756 5760 5763 5767 5767 5766 5767 5765 5762 5759 5753 5748 5743 5738 5734 5730 5727 5722 5718 5717 5719 5721 5723 5726 5728 5729 5730 5730 5730 5730 5730 5729 5728 5727 5724 5722 5718
5767 5756 5744 5732 5717 5702 5720 5714 5711 5727 5736 5741 5749 5755 5759 5763 5765 5764 5763 5759 5754 5750 5745 5740 5733 5728 5724 5721 5717 5713 5710 5709 5710 5711 5713 5716 5719 5721 5723 5724 5725 5725 5725 5724 5723 5722 5719 5716 5713
5752 5718 5693 5691 5684 5692 5716 5710 5708 5735 5745 5746 5747 5751 5757 5760 5758 5755 5752 5748 5744 5741 5737 5731 5725 5719 5715 5711 5707 5703 5701 5699 5698 5699 5701 5704 5707 5710 5713 5715 5717 5718 5719 5719 5718 5715 5712 5709 5705
5746 5721 5689 5678 5675 5686 5705 5704 5716 5743 5750 5751 5751 5751 5752 5751 5750 5748 5746 5742 5738 5735 5730 5724 5718 5712 5707 5702 5698 5694 5691 5688 5686 5686 5687 5690 5693 5697 5701 5705 5707 5710 5711 5711 5709 5706 5703 5699 5696
5741 5726 5718 5692 5692 5686 5693 5711 5725 5739 5741 5743 5744 5744 5744 5746 5746 5744 5742 5738 5735 5731 5725 5719 5712 5706 5700 5695 5690 5685 5681 5678 5675 5675 5675 5676 5679 5684 5688 5692 5696 5699 5700 5700 5698 5695 5692 5688 5685
5751 5735 5708 5694 5678 5671 5687 5698 5702 5722 5728 5736 5738 5739 5741 5742 5741 5740 5737 5735 5732 5727 5722 5716 5709 5702 5696 5690 5685 5680 5674 5670 5667 5665 5664 5664 5666 5669 5674 5678 5682 5685 5687 5688 5687 5684 5681 5678 5675
5737 5732 5714 5693 5683 5669 5665 5685 5725 5726 5731 5731 5733 5735 5733 5733 5732 5731 5730 5729 5727 5722 5717 5710 5704 5697 5691 5685 5679 5674 5668 5663 5659 5656 5654 5654 5655 5657 5660 5664 5668 5671 5674 5675 5675 5674 5672 5669 5666
5740 5730 5710 5689 5686 5681 5671 5686 5727 5727 5726 5725 5723 5724 5723 5722 5721 5721 5721 5719 5717 5714 5710 5704 5699 5693 5688 5682 5675 5669 5663 5657 5652 5648 5646 5646 5646 5647 5650 5652 5655 5658 5661 5663 5664 5665 5663 5660 5658